VE7PMC Weather Reports


time (UTC)temp
C
wind
direction
speed
KPH
gust
KPH
rain 1hr
cm
rain 24hr
cm
rain mn
cm
humidity
%
barometer
mb
20260506144550 14 9 0.0 0.0 0.00 0.00 0.00 49 1007.0
20260506143038 13 9 0.0 0.0 0.00 0.00 0.00 55 1007.3
20260506141542 11 9 0.0 0.0 0.00 0.00 0.00 62 1007.6
20260506140045 9 9 0.0 0.0 0.00 0.00 0.00 70 1006.7
20260506134548 8 9 0.0 0.0 0.00 0.00 0.00 70 1007.3
20260506133112 8 9 0.0 0.0 0.00 0.00 0.00 70 1007.1
20260506131554 8 9 0.0 0.0 0.00 0.00 0.00 69 1006.9
20260506130038 8 9 0.0 0.0 0.00 0.00 0.00 69 1006.9
20260506124546 8 9 0.0 0.0 0.00 0.00 0.00 68 1006.9
20260506123110 8 9 0.0 0.0 0.00 0.00 0.00 67 1006.6
20260506121552 8 9 0.0 0.0 0.00 0.00 0.00 67 1006.5
20260506120055 8 9 0.0 0.0 0.00 0.00 0.00 66 1006.4
20260506114539 8 9 0.0 0.0 0.00 0.00 0.00 65 1006.3
20260506113043 9 9 0.0 0.0 0.00 0.00 0.00 64 1006.2
20260506111551 9 9 0.0 0.0 0.00 0.00 0.00 64 1006.1
20260506110039 9 9 0.0 0.0 0.00 0.00 0.00 63 1005.9
20260506104602 10 9 0.0 0.0 0.00 0.00 0.00 63 1005.7
20260506103042 10 9 0.0 0.0 0.00 0.00 0.00 62 1005.7
20260506101545 10 9 0.0 0.0 0.00 0.00 0.00 62 1005.5
20260506100110 10 9 0.0 0.0 0.00 0.00 0.00 61 1005.4
20260506094552 10 9 0.0 0.0 0.00 0.00 0.00 60 1005.4
20260506093043 10 9 0.0 0.0 0.00 0.00 0.00 60 1005.4
20260506091547 10 9 0.0 0.0 0.00 0.00 0.00 60 1005.5
20260506090050 11 9 0.0 0.0 0.00 0.00 0.00 59 1005.4
20260506084556 11 9 0.0 0.0 0.00 0.00 0.00 57 1005.5
20260506083039 11 9 0.0 0.0 0.00 0.00 0.00 56 1005.4
20260506081542 11 9 0.0 0.0 0.00 0.00 0.00 55 1005.3
20260506073054 12 9 0.0 0.0 0.00 0.00 0.00 53 1005.1
20260506071617 12 9 0.0 0.0 0.00 0.00 0.00 51 1005.0
20260506061553 14 9 0.0 0.0 0.00 0.00 0.00 46 1004.2
20260506044540 16 9 0.0 0.0 0.00 0.00 0.00 40 1004.0
20260506043046 16 9 0.0 0.0 0.00 0.00 0.00 38 1003.7
20260506041550 17 9 0.0 0.0 0.00 0.00 0.00 35 1003.6
20260506040052 17 9 0.0 0.0 0.00 0.00 0.00 32 1003.3
20260506034556 18 0.0 0.0 0.00 0.00 0.00 32 1003.1
20260506033053 19 9 0.0 0.0 0.00 0.00 0.00 32 1003.1
20260506031555 20 9 0.0 0.0 0.00 0.00 0.00 30 1002.9
20260506030043 21 9 0.0 0.0 0.00 0.00 0.00 27 1003.7
20260506024548 21 9 0.0 0.0 0.00 0.00 0.00 27 1003.4
20260506023055 22 9 0.0 0.0 0.00 0.00 0.00 24 1003.4
20260506021541 23 9 0.0 0.0 0.00 0.00 0.00 23 1003.3
20260506020045 24 9 0.0 0.0 0.00 0.00 0.00 18 1003.3
20260506014549 25 9 0.0 0.0 0.00 0.00 0.00 18 1003.7
20260506013037 25 10 0.0 0.0 0.00 0.00 0.00 18 1003.8
20260506011542 25 7 0.0 0.0 0.00 0.00 0.00 19 1003.7
20260506010048 25 9 0.0 0.0 0.00 0.00 0.00 18 1003.9
20260506004553 25 353 0.0 0.0 0.00 0.00 0.00 19 1004.0
20260506003057 25 343 1.6 0.0 0.00 0.00 0.00 19 1004.1
20260506001540 25 353 1.6 0.0 0.00 0.00 0.00 18 1004.3
20260506000044 26 342 1.6 0.0 0.00 0.00 0.00 18 1004.4
20260505234554 26 333 3.2 0.0 0.00 0.00 0.00 18 1004.6
20260505233056 26 350 0.0 0.0 0.00 0.00 0.00 18 1004.6
20260505231559 25 350 1.6 0.0 0.00 0.00 0.00 18 1004.9
20260505230042 25 333 1.6 0.0 0.00 0.00 0.00 18 1005.1
20260505224605 25 345 0.0 0.0 0.00 0.00 0.00 18 1005.1
20260505223111 25 350 1.6 0.0 0.00 0.00 0.00 18 1005.2
20260505221557 25 357 1.6 0.0 0.00 0.00 0.00 18 1005.4
20260505220045 25 10 0.0 0.0 0.00 0.00 0.00 19 1005.7
20260505214554 25 352 1.6 0.0 0.00 0.00 0.00 18 1005.8
20260505213039 25 338 0.0 0.0 0.00 0.00 0.00 19 1006.0
20260505211543 24 346 3.2 0.0 0.00 0.00 0.00 20 1006.2
20260505210052 24 350 1.6 0.0 0.00 0.00 0.00 19 1006.3
20260505204540 23 340 0.0 0.0 0.00 0.00 0.00 19 1006.6
20260505203043 23 335 1.6 0.0 0.00 0.00 0.00 21 1006.7
20260505201611 23 339 1.6 0.0 0.00 0.00 0.00 20 1006.9
20260505200038 23 359 0.0 0.0 0.00 0.00 0.00 22 1007.2
20260505194541 23 340 1.6 0.0 0.00 0.00 0.00 22 1007.2
20260505193106 23 3 1.6 0.0 0.00 0.00 0.00 20 1007.5
20260505191613 22 342 0.0 0.0 0.00 0.00 0.00 21 1007.7
20260505190054 22 336 6.4 0.0 0.00 0.00 0.00 20 1007.8
20260505184548 22 78 1.6 0.0 0.00 0.00 0.00 22 1007.8
20260505183052 22 352 0.0 0.0 0.00 0.00 0.00 22 1007.8
20260505181535 21 349 0.0 0.0 0.00 0.00 0.00 23 1008.1
20260505180042 21 353 0.0 0.0 0.00 0.00 0.00 23 1008.2
20260505174546 21 353 0.0 0.0 0.00 0.00 0.00 25 1008.0
20260505173049 21 350 0.0 0.0 0.00 0.00 0.00 25 1008.1
20260505171556 20 345 0.0 0.0 0.00 0.00 0.00 26 1008.3
20260505170040 18 338 1.6 0.0 0.00 0.00 0.00 29 1008.5
20260505164604 18 335 1.6 0.0 0.00 0.00 0.00 28 1008.5
20260505163046 18 335 0.0 0.0 0.00 0.00 0.00 30 1008.5
20260505161553 17 335 0.0 0.0 0.00 0.00 0.00 39 1008.6
20260505153057 -17 0.0 0.0 0.00 0.00 0.00 1008.9
20260505151600 -17 0.0 0.0 0.00 0.00 0.00 1008.9